Home   Weather   Oxford   Past weeks

Flag for United Kingdom Past Weather in Oxford, England, United Kingdom — Yesterday and Last 2 Weeks

Now
52 °F

Clear.


Feels Like: 49 °F
Forecast: 47 / 58 °F
Wind: 8 mph from South

Location: Benson

Current Time: Sep 30, 2016 at 6:01:26 AM

Latest Report: Sep 30, 2016 at 4:50 AM


Visibility: 10 mi

Pressure: 29.89 "Hg

Humidity: 88%

Dew Point: 48 °F

Location of OxfordLocation

Past Weather in Oxford — Graph

°F

Oxford Temperature Yesterday

Maximum temperature yesterday: 64 °F (at 12:50 PM)
Minimum temperature yesterday: 52 °F (at 9:50 PM)
Average temperature yesterday: 60 °F

High & Low Weather Summary for the Past Weeks

 TemperatureHumidityPressure
High79 °F (Sep 15, 2:50 PM)100% (Sep 15, 4:50 AM)30.27 "Hg (Sep 15, 4:50 AM)
Low41 °F (Sep 23, 3:50 AM)49% (Sep 22, 2:50 PM)29.74 "Hg (Sep 25, 3:50 AM)
Average59 °F82%30.07 "Hg
* Reported Sep 15 4:50 AM — Sep 30 4:50 AM, Oxford, Weather by CustomWeather, © 2016

Note: Actual official high and low records may vary slightly from our data, if they occured in-between our weather recording intervals... More about our weather records

Advertising

Oxford Weather History for the Previous 24 Hours

Scroll right to see more
 ConditionsComfort  
Time TempWeatherWind HumidityBarometerVisibility
4:50 AM
Fri, Sep 30
52 °FClear.8 mph88%29.89 "Hg10 mi
3:50 AM52 °FClear.7 mph88%29.89 "Hg10 mi
2:50 AM52 °FPassing clouds.7 mph88%29.92 "HgN/A
1:50 AM50 °FPassing clouds.5 mph94%29.95 "HgN/A
12:50 AM52 °FPassing clouds.7 mph88%29.92 "HgN/A
11:50 PM
Thu, Sep 29
52 °FClear.7 mph88%29.95 "Hg10 mi
10:50 PM52 °FClear.8 mph88%29.95 "Hg10 mi
9:50 PM52 °FClear.5 mph82%29.95 "Hg10 mi
8:50 PM54 °FClear.7 mph77%29.95 "Hg10 mi
7:50 PM55 °FClear.7 mph77%29.95 "Hg10 mi
6:50 PM57 °FPassing clouds.8 mph72%29.95 "HgN/A
5:50 PM61 °FScattered clouds.13 mph59%29.92 "HgN/A
4:50 PM63 °FPartly sunny.20 mph59%29.92 "HgN/A
3:50 PM63 °FPartly sunny.20 mph59%29.92 "HgN/A
2:50 PM64 °FBroken clouds.20 mph60%29.92 "HgN/A
1:50 PM64 °FPartly sunny.15 mph60%29.92 "HgN/A
12:50 PM64 °FPartly sunny.16 mph64%29.95 "HgN/A
11:50 AM63 °FPartly sunny.18 mph68%29.95 "HgN/A
10:50 AM61 °FPartly sunny.15 mph83%29.95 "HgN/A
9:50 AM59 °FBroken clouds.10 mph82%29.95 "HgN/A
8:50 AM61 °FPartly sunny.13 mph83%29.95 "HgN/A
7:50 AM63 °FDrizzle. Mostly cloudy.14 mph88%29.95 "HgN/A
6:50 AM63 °FPartly cloudy.17 mph88%29.95 "HgN/A
Weather by CustomWeather, © 2016

See weather overviewHow to use our weather pages